Location: Bergnershof
(48.9468°N, 10.9431°E)
Time: 23:49:30
(UTC+00:00)

Aureole 2 Rocket - Pass Details

Date: 03 March 2021
Orbit: 276 x 344 km, 73.9° (Epoch: 12 April)

Event Time Altitude Azimuth Distance (km) Brightness Sun altitude
Rises 17:30:06 0° 346° (NNW) 1,997 5.8 -5.3°
Maximum altitude 17:34:21 25° 60° (ENE) 640 2.7 -6.0°
Drops below altitude 10° 17:36:26 10° 119° (ESE) 1,120 3.9 -6.3°
Enters shadow 17:37:42 - 131° (SE) 1,609 4.8 -6.5°
